Theta_e
307 308 309 309 311 313 307 300 290 304 301 292 286 286 285 290 286 287 286 285 284 283 284 282 283 284 287 286 285 281 280 277 274 281 275 279 277 276 275 275 272 277 278 280
307 307 308 309 311 312 300 296 295 305 300 286 285 286 287 287 286 286 286 285 286 285 283 280 284 286 286 287 286 281 280 276 272 277 277 277 273 273 284 280 278 278 277 279
307 307 307 308 310 312 302 298 289 293 294 292 287 283 287 286 287 287 287 285 285 283 282 285 281 285 285 286 286 294 288 278 277 276 277 277 274 278 278 278 279 276 281 281
306 306 306 308 309 311 306 295 288 290 284 288 286 286 285 286 286 286 286 283 284 281 279 283 282 285 284 285 288 286 283 274 280 282 285 284 285 285 284 280 283 280 283 283
305 305 305 307 308 311 300 293 291 293 290 291 286 286 285 287 288 286 286 283 286 285 280 285 284 286 286 287 283 282 285 281 280 281 284 284 281 282 282 282 282 284 285 284
304 305 305 306 306 307 297 296 297 297 291 289 285 287 288 288 290 292 293 289 288 287 289 288 289 289 289 288 284 281 281 281 279 279 282 281 277 279 280 272 280 281 279 278
303 304 304 304 306 301 296 293 298 292 285 287 289 290 291 289 289 289 293 293 290 289 290 291 290 288 289 290 289 287 280 280 281 278 280 272 273 275 274 276 274 279 279 279
303 303 304 304 304 301 293 293 292 291 281 287 287 288 286 286 288 288 289 288 288 289 288 282 280 280 281 279 278 282 287 282 279 276 276 277 278 278 277 273 277 281 277 276
302 302 303 303 302 303 292 291 292 292 280 282 286 284 286 279 278 283 287 289 290 288 281 279 275 273 276 276 275 279 282 283 281 277 273 271 273 279 280 277 273 282 276 273
302 302 302 302 301 301 293 290 291 287 277 283 285 281 281 285 279 275 279 281 282 285 276 279 274 273 279 273 274 272 276 275 274 275 274 274 278 280 283 272 271 279 276 274
302 301 301 301 301 301 294 289 291 286 280 282 286 286 280 280 279 273 277 276 280 277 272 274 272 268 273 273 276 277 275 273 269 270 268 270 281 281 276 279 283 280 277 272
301 301 301 301 301 300 297 286 292 293 287 283 287 287 287 286 285 284 278 278 282 282 280 278 278 276 273 269 271 277 270 274 271 275 275 283 282 282 283 283 279 278 274 274
301 301 301 301 301 301 297 288 289 286 279 279 281 281 286 288 286 287 276 279 285 284 285 282 280 272 271 267 269 271 275 281 278 278 280 281 282 284 284 284 281 279 283 282
300 300 300 300 300 300 298 289 290 286 280 273 277 287 283 286 287 286 285 285 285 284 284 273 272 270 277 275 273 275 277 276 276 278 281 281 281 281 282 281 280 280 280 278
299 299 299 299 298 298 294 293 291 290 281 276 277 283 284 285 284 282 283 283 283 282 278 278 271 271 272 270 269 268 275 275 273 275 281 281 280 282 282 279 278 278 274 273
299 299 298 297 298 298 290 284 291 291 288 282 272 281 278 282 281 281 281 283 282 282 280 275 269 281 278 270 265 272 275 281 283 280 283 280 281 281 280 277 278 276 273 271
299 299 297 297 297 291 285 282 289 292 288 275 272 273 278 278 276 278 281 281 281 281 279 276 269 273 277 272 270 273 273 274 278 279 279 277 278 276 278 277 276 275 271 268
299 297 295 296 297 294 287 289 292 291 283 283 271 269 274 277 273 272 280 278 278 274 274 272 271 271 270 269 267 267 269 274 275 278 277 274 274 275 274 272 271 269 266 265
298 295 294 286 284 282 283 292 292 290 284 272 271 267 265 275 273 270 274 280 273 275 270 272 274 267 267 267 263 264 269 270 272 271 270 269 269 267 266 265 265 265 264 262
295 286 279 277 284 292 290 285 275 281 281 280 275 275 269 273 271 270 268 272 274 270 268 275 268 264 263 260 261 263 264 268 266 270 271 269 267 266 262 262 262 263 264 264
283 279 280 285 290 282 277 272 267 268 270 277 275 271 269 274 269 268 270 272 269 265 266 267 265 265 264 262 262 260 259 264 271 271 268 264 264 262 262 264 265 265 265 263
287 288 287 285 272 265 264 260 263 262 267 272 270 271 272 272 276 275 271 264 263 261 268 265 261 264 265 262 265 266 264 266 268 268 269 266 263 262 263 260 260 259 258 258
282 273 278 274 265 262 260 259 262 263 269 269 268 269 272 276 277 273 271 268 263 268 265 263 264 260 263 265 263 267 267 269 271 270 269 268 265 266 263 260 258 258 260 260
270 269 265 265 261 266 265 265 267 271 269 269 270 272 271 272 273 269 266 267 267 261 260 262 265 266 268 266 264 267 267 269 269 268 269 268 268 265 266 265 263 263 262 261
270 270 267 265 269 268 269 269 268 271 271 272 273 273 272 271 272 270 267 264 259 263 264 268 269 268 269 269 269 268 268 267 267 266 266 266 266 264 263 263 262 263 263 263
279 276 272 268 272 270 270 270 273 275 273 274 273 272 272 269 268 267 264 259 260 267 271 272 271 271 270 269 269 269 268 267 266 266 265 265 263 262 262 262 261 261 263 262
275 272 270 269 268 272 275 276 275 277 276 272 273 270 269 270 269 265 264 262 271 273 271 272 272 270 268 268 269 268 268 266 266 265 264 263 265 262 262 261 261 261 262 262
Wind_Speed
22 23 22 23 23 24 6 2 3 3 2 5 2 2 0 1 1 1 1 1 2 3 2 3 4 3 1 5 6 5 1 5 3 7 2 1 2 5 5 5 6 4 3 7
23 24 24 24 22 16 2 2 2 3 4 3 2 3 1 0 0 2 1 2 2 1 3 2 4 2 1 5 6 7 6 2 3 7 4 3 2 4 4 2 2 7 7 6
23 25 26 26 25 19 3 4 4 6 6 1 4 4 2 1 0 2 0 2 1 0 3 5 4 3 3 6 5 7 6 3 8 9 7 6 3 5 6 5 6 7 12 13
25 26 27 28 28 24 4 4 0 3 3 4 3 0 1 2 3 1 1 1 4 5 2 3 5 4 1 3 4 4 6 6 5 7 9 7 14 13 12 15 19 16 16 13
26 26 28 28 30 18 6 3 3 4 2 2 2 1 2 1 3 1 3 3 3 4 6 7 5 3 2 7 3 6 4 5 1 5 9 14 19 11 16 18 15 16 16 12
25 25 27 28 30 13 4 3 4 1 3 3 3 2 2 1 1 4 3 3 3 5 7 3 6 6 6 7 7 8 6 4 2 14 3 5 8 13 13 3 1 1 3 3
24 24 26 27 26 16 3 2 2 2 4 1 1 7 4 5 6 5 7 4 4 3 7 6 7 8 15 16 16 9 7 5 3 8 3 10 5 2 3 12 2 6 6 1
23 23 24 24 24 17 7 3 3 3 3 3 5 9 4 7 6 4 3 3 2 5 5 4 6 5 4 2 5 2 5 5 3 4 5 2 2 1 2 4 3 2 2 2
21 22 23 22 24 20 4 5 3 3 4 2 6 4 4 1 4 7 3 1 4 4 2 2 3 4 4 4 1 6 4 3 4 1 5 6 3 3 3 2 3 4 4 2
19 20 21 22 22 21 4 2 5 4 3 3 5 3 3 4 3 2 4 7 7 4 2 3 3 5 5 4 3 1 1 1 4 4 4 3 3 1 3 3 3 4 4 2
18 18 19 19 19 21 6 1 4 3 1 4 5 5 3 5 3 2 5 6 5 4 3 1 4 2 3 3 1 4 5 5 4 0 2 8 2 2 2 3 3 3 3 2
16 16 16 16 16 16 9 3 4 2 0 4 1 2 1 2 1 2 3 1 3 3 3 3 4 4 4 2 4 2 3 6 4 6 3 3 2 8 4 5 4 1 2 3
14 15 15 14 14 14 8 0 3 3 3 4 3 2 3 3 2 1 2 1 2 1 1 2 2 4 3 2 6 1 4 1 1 3 4 4 7 3 3 4 4 4 3 3
15 15 15 14 12 11 7 3 3 3 2 2 5 1 0 3 1 2 2 1 1 1 1 2 3 2 4 3 4 2 5 1 3 1 5 7 5 1 6 4 3 2 1 3
15 16 16 15 13 9 3 2 2 1 5 2 4 5 3 2 4 6 2 1 2 2 2 3 5 3 2 3 2 5 4 6 4 3 7 2 4 6 5 5 1 1 2 4
15 15 14 12 9 4 1 1 3 4 2 1 3 4 2 3 4 3 1 3 3 2 2 4 4 4 1 3 4 6 4 2 4 5 8 6 6 7 3 2 2 0 2 3
17 16 12 9 4 3 2 3 2 5 1 3 3 4 3 2 2 1 2 1 2 2 3 3 3 3 3 2 4 5 4 2 3 3 6 6 5 2 5 2 3 4 2 1
18 13 5 4 9 8 2 3 6 3 2 1 2 5 4 1 2 2 2 2 1 2 3 3 1 3 1 5 6 6 3 2 2 5 6 4 4 6 4 2 4 4 4 3
15 7 5 4 4 2 2 11 5 1 1 3 3 3 5 2 2 1 2 1 3 2 3 3 2 3 5 7 4 3 3 3 5 3 6 6 5 2 2 2 5 4 5 4
6 5 4 2 1 8 6 1 1 1 0 2 3 1 3 4 2 3 3 2 2 2 5 1 2 5 3 4 5 6 5 5 3 5 5 5 2 6 5 4 3 2 3 3
4 5 2 2 5 1 2 1 3 1 2 4 4 5 3 2 2 3 2 2 2 2 6 3 4 5 4 3 3 2 1 2 5 4 3 3 3 1 2 3 3 3 4 4
3 5 3 2 4 4 4 3 3 2 5 2 3 4 4 2 2 1 2 3 2 7 1 1 5 6 4 2 3 2 1 2 5 4 6 3 2 3 3 2 3 3 5 5
3 5 2 3 3 3 5 5 5 2 3 3 1 2 4 1 1 1 1 4 6 1 0 6 7 4 3 5 3 3 2 0 1 3 5 4 2 0 2 1 4 4 3 3
3 3 6 6 4 6 6 5 4 5 3 3 3 0 4 3 2 3 3 6 2 3 3 8 4 8 7 6 3 4 3 3 3 4 4 4 4 3 3 3 3 2 3 4
2 3 7 7 4 4 4 3 2 3 2 3 2 1 3 2 4 4 1 2 5 7 7 5 4 7 7 6 5 5 5 3 4 3 3 3 1 1 2 4 3 2 3 5
4 7 5 3 1 4 2 3 6 4 3 2 2 3 4 6 4 4 9 5 8 6 5 3 5 8 7 6 3 2 2 3 3 3 3 1 1 1 2 3 3 3 5 6
6 6 3 4 2 6 5 4 4 4 5 4 3 6 10 1 4 5 5 8 9 2 1 4 6 6 5 4 4 5 3 3 3 2 3 3 3 2 3 3 3 4 6 5
Wind_Direction
11 5 357 358 357 344 60 52 46 280 65 49 42 110 50 236 202 222 225 200 207 227 308 262 255 245 256 149 145 163 155 139 226 225 293 312 185 184 149 139 259 231 206 267
13 7 360 357 1 12 6 53 267 331 75 95 348 274 197 347 287 258 267 267 189 104 245 286 221 281 139 160 154 169 202 253 351 324 4 13 177 253 204 143 54 199 260 265
17 11 4 358 355 359 100 64 23 334 39 86 106 14 338 284 156 269 162 244 75 159 252 220 260 242 199 188 187 152 145 187 183 217 202 139 181 200 208 183 226 253 228 259
23 15 10 2 356 349 93 36 277 179 325 345 11 165 283 307 306 230 213 281 225 174 271 282 226 233 154 197 214 177 149 206 226 247 257 252 263 252 223 220 245 246 270 268
26 20 15 8 359 349 76 76 52 2 275 290 296 94 218 219 313 172 271 218 306 202 208 210 255 22 239 230 163 180 184 259 209 255 237 251 260 254 249 251 255 259 270 277
29 23 22 16 8 8 75 346 4 66 277 332 70 238 6 10 44 290 222 228 292 267 256 241 243 216 230 232 179 205 171 183 204 276 202 313 264 227 228 169 113 272 205 108
32 29 25 22 21 27 89 6 355 42 288 66 263 344 338 8 334 267 298 316 262 325 318 287 267 248 245 241 242 197 167 164 197 280 117 257 263 308 144 108 91 86 93 108
35 30 27 24 26 47 60 338 42 41 278 344 342 358 333 327 320 299 295 355 258 302 317 336 324 304 325 31 45 357 223 158 232 238 212 343 220 142 170 137 164 105 135 303
34 31 26 25 24 25 64 32 340 27 104 350 295 309 350 315 329 342 357 323 309 359 71 82 240 244 267 266 292 3 40 49 207 159 239 244 207 148 73 101 158 59 122 187
32 33 27 26 24 23 71 23 358 75 83 319 11 37 286 339 19 248 324 331 341 34 19 254 235 248 246 276 275 135 136 296 220 245 275 254 182 84 78 179 179 184 168 223
29 28 26 23 22 17 40 270 29 84 107 310 27 357 341 351 44 104 295 12 353 1 21 99 283 47 283 351 163 178 182 173 217 67 250 270 69 60 205 114 140 165 163 209
22 22 21 19 20 17 23 22 331 319 144 239 244 293 124 111 203 299 323 209 316 324 307 5 336 329 351 184 282 297 315 195 215 194 220 140 328 121 125 113 136 201 193 228
13 13 11 9 9 15 27 108 315 36 54 326 27 269 215 81 95 209 124 322 351 28 353 323 268 264 108 255 260 283 307 265 295 334 114 119 90 73 129 137 135 178 235 278
3 359 357 353 353 356 30 78 324 75 95 98 281 289 137 182 110 95 30 333 358 252 240 218 238 190 184 240 229 204 219 28 215 72 97 111 230 245 127 126 124 159 349 313
356 354 350 344 343 343 40 96 40 61 115 259 286 304 219 146 98 96 64 194 222 240 251 231 239 250 49 276 47 269 195 217 170 240 152 96 178 150 122 107 128 43 225 305
344 345 348 340 341 355 147 71 26 13 62 343 314 307 236 144 92 89 166 217 237 231 231 238 269 230 185 225 240 255 253 249 167 163 186 143 133 105 75 100 85 340 217 252
345 343 345 338 357 48 104 167 3 338 45 76 316 318 278 159 118 219 208 242 245 218 261 243 210 238 211 241 232 256 250 245 101 78 103 68 69 95 11 64 77 21 333 33
341 347 347 31 88 106 62 357 344 1 110 54 268 273 349 169 296 308 195 270 271 263 235 310 248 321 192 261 260 274 262 358 1 68 57 117 108 58 17 21 6 24 351 325
341 353 62 53 44 46 277 313 304 338 172 183 179 166 249 357 277 193 345 198 278 265 211 246 109 269 231 233 257 289 280 202 191 68 87 55 101 208 233 19 12 19 330 331
14 38 39 7 224 303 320 78 0 198 32 217 236 136 255 95 11 306 25 318 276 294 257 299 196 254 247 256 237 260 242 202 151 79 5 350 352 25 5 356 322 278 281 300
23 4 324 252 336 23 52 195 105 327 264 213 226 188 191 300 112 228 162 315 283 281 265 137 267 265 230 277 341 314 238 185 110 122 118 176 179 330 355 341 306 305 298 282
247 280 329 314 41 23 75 249 322 120 232 245 168 227 184 267 122 178 287 198 32 245 237 78 266 252 229 199 231 288 177 125 121 136 135 128 137 207 182 227 279 267 270 296
30 40 279 48 287 4 150 224 287 275 215 216 184 263 159 105 172 216 145 242 234 24 316 233 229 230 223 209 204 218 235 180 117 103 96 99 99 266 83 20 260 262 296 282
83 73 305 171 278 248 202 193 205 238 148 148 135 175 163 187 183 193 194 236 98 279 242 239 243 204 185 186 199 150 180 198 127 77 76 64 46 16 340 283 273 317 328 298
233 125 237 226 242 244 237 224 305 242 164 107 51 323 134 194 228 205 193 283 242 214 228 228 221 173 168 177 172 159 154 144 109 110 94 78 37 268 289 315 333 4 328 320
230 229 256 243 323 285 270 213 252 190 154 75 66 222 229 214 200 198 212 164 223 239 221 231 149 157 149 133 119 128 116 96 98 103 96 64 334 308 291 348 24 355 328 320
221 238 192 172 239 235 239 194 222 163 138 192 187 215 220 153 213 215 194 214 250 248 340 37 49 86 84 54 59 66 49 46 58 39 7 335 357 23 58 22 340 333 319 311